Terminal Aerodrome Forecast
Issued by NWS

Home | Current Version | Previous Version | Text Only | Print | Product List | Glossary On
Versions: 1 2 3 4 5 6 7 8 9 10 11 12 13 14 15 16 17 18 19
000
FTUS41 KPBZ 220400 AAB
TAFFKL
TAF AMD
KFKL 220442Z 2205/2224 35005KT P6SM OVC007
     FM221300 01007KT P6SM OVC015
     FM221500 02006KT P6SM BKN025
      AMD LTD TO CLD VIS AND WIND=

USA.gov is the U.S. government's official web portal to all federal, state and local government web resources and services.